Location: Sevilla
(37.3933°N, 5.9839°W)
Time: 05:11:26
(UTC+02:00)

Transit 2A - Pass Details

Date: 03 July 2024
Orbit: 591 x 960 km, 66.7° (Epoch: 15 July)

Event Time Altitude Azimuth Distance (km) Brightness Sun altitude
Rises 01:18:53 0° 318° (NW) 3,617 10.5 -27.5°
Reaches altitude 10° 01:21:53 10° 305° (NW) 2,688 9.4 -27.7°
Maximum altitude 01:26:48 24° 254° (WSW) 1,860 7.9 -28.0°
Enters shadow 01:27:30 24° 244° (WSW) 1,879 7.9 -28.0°
Drops below altitude 10° 01:31:40 10° 203° (SSW) 2,657 - -28.2°
Sets 01:34:39 0° 190° (S) 3,567 - -28.4°
